Location: Brusselsch Zeekanaal
(50.8667°N, 4.3667°E)
Time: 08:51:09
(UTC+00:00)

Cosmos 1782 Rocket - Pass Details

Date: 08 November 2025
Orbit: 599 x 626 km, 82.5° (Epoch: 11 December)

Event Time Altitude Azimuth Distance (km) Brightness Sun altitude
Rises 05:31:01 0° 344° (NNW) 2,912 6.7 -12.1°
Reaches altitude 10° 05:33:21 10° 337° (NNW) 1,997 5.8 -11.7°
Maximum altitude 05:37:29 40° 268° (W) 908 4.0 -11.1°
Drops below altitude 10° 05:41:34 10° 198° (SSW) 1,966 6.1 -10.5°
Sets 05:43:51 0° 191° (SSW) 2,861 7.0 -10.1°
